Regional Weather Roundup
Issued by NWS

Home | Current Version | Previous Version | Graphics & Text | Print | Product List | Glossary On
Versions: 1 2 3 4 5 6 7 8 9 10 11 12 13 14 15 16 17 18 19 20 21 22 23 24 25 26 27 28 29 30 31 32 33 34 35 36 37 38 39 40 41 42 43 44 45 46 47 48 49 50
000
ASUS43 KDTX 301810
RWRMI
MICHIGAN HOURLY REGIONAL WEATHER ROUNDUP
NATIONAL WEATHER SERVICE DETROIT/PONTIAC MI
100 PM EST FRI JAN 30 2015

NOTE: "FAIR" INDICATES FEW OR NO CLOUDS BELOW 12,000 FEET WITH NO
SIGNIFICANT WEATHER AND/OR OBSTRUCTION TO VISIBILITY.

MIZ047>049-052>055-059>063-066>070-074>076-081>083-301900-
SOUTHEAST LOWER MICHIGAN

CITY           SKY/WX    TMP DP  RH WIND       PRES   REMARKS
ADRIAN         MOSUNNY   21   8  57 N15G21    30.44F
6HR MIN TEMP:  17; 6HR MAX TEMP:  21;

ALMA           PTSUNNY   19   6  59 NW8G16    30.47S
6HR MIN TEMP:  16; 6HR MAX TEMP:  20;

ANN ARBOR      SUNNY     19   4  51 N10G22    30.43F
BAD AXE        CLOUDY    11   4  73 NW15G24   30.42F WCI  -5
DETROIT CITY   SUNNY     19   1  45 NW13G22   30.43
6HR MIN TEMP:  15; 6HR MAX TEMP:  19;

DETROIT        MOSUNNY   22   5  48 N12       30.44F
FLINT          MOSUNNY   18   3  52 NW12      30.44F
6HR MIN TEMP:  14; 6HR MAX TEMP:  18; 6HR PCP: TRACE;

GROSSE ILE     SUNNY     19   3  49 NW10      30.42F
HILLSDALE      CLOUDY    20   8  59 NW9       30.41F
6HR MIN TEMP:  18; 6HR MAX TEMP:  20;

HOWELL         MOSUNNY   17   4  56 N10G17    30.42F
6HR MIN TEMP:  13; 6HR MAX TEMP:  17;


CITY           SKY/WX    TMP DP  RH WIND       PRES   REMARKS
JACKSON        PTSUNNY   20   6  55 N14G20    30.43F
6HR MIN TEMP:  17; 6HR MAX TEMP:  21; 6HR PCP: TRACE;

LAMBERTVILLE   SUNNY     21   9  58 NW8G18    30.45S
LANSING        CLOUDY    19   7  59 N10       30.45F
6HR MIN TEMP:  16; 6HR MAX TEMP:  20; 6HR PCP: TRACE;

LAPEER         NOT AVBL
MASON          PTSUNNY   18   6  59 N10G16    30.43F
6HR MIN TEMP:  15; 6HR MAX TEMP:  19;

MONROE         SUNNY     19   7  58 NW14      30.43S
MT. CLEMENS    MOSUNNY   16   1  52 NW16G22   30.40R
6HR MIN TEMP:  13; 6HR MAX TEMP:  16; 6HR PCP: TRACE;

PONTIAC        MOSUNNY   15   2  56 NW14      30.40F
6HR MIN TEMP:  11; 6HR MAX TEMP:  15; 6HR PCP: TRACE;

PORT HOPE        N/A     14   7  73 NW10G23   30.41R
6HR MIN TEMP:  13; 6HR MAX TEMP:  16; 6HR PCP:  0.06;

PORT HURON     CLOUDY    14   5  67 NW15G24   30.41S WCI  -1
TRI CITIES     SUNNY     19   2  47 N12       30.46F
6HR MIN TEMP:  12; 6HR MAX TEMP:  19;

YPSILANTI      SUNNY     22   5  48 N15G21    30.44F
6HR MIN TEMP:  17; 6HR MAX TEMP:  22; 6HR PCP: TRACE;

$$
MIZ043>046-050>051-056>058-064>065-071>073-077>080-301900-
SOUTHWEST LOWER MICHIGAN

CITY           SKY/WX    TMP DP  RH WIND       PRES   REMARKS
BATTLE CREEK   CLOUDY    23   9  55 W9        30.45S
6HR MIN TEMP:  20; 6HR MAX TEMP:  24;

BENTON HARBOR  CLOUDY    23  15  71 VRB5      30.49S
6HR MIN TEMP:  22; 6HR MAX TEMP:  24; 6HR PCP: TRACE;

BIG RAPIDS     CLOUDY    19   9  63 N7        30.43S
6HR MIN TEMP:  17; 6HR MAX TEMP:  19;

COLDWATER      MOSUNNY   22   8  55 NW9       30.44S
6HR MIN TEMP:  19; 6HR MAX TEMP:  22;

HOLLAND        CLOUDY    24  10  55 W8        30.48F
6HR MIN TEMP:  20; 6HR MAX TEMP:  24; 6HR PCP: TRACE;

GRAND RAPIDS   PTSUNNY   21   9  59 NW9       30.47S
6HR MIN TEMP:  19; 6HR MAX TEMP:  23;

KALAMAZOO      CLOUDY    22   9  57 W5        30.46S
6HR MIN TEMP:  20; 6HR MAX TEMP:  23; 6HR PCP: TRACE;

MARSHALL       PTSUNNY   22   9  57 NW7       30.43F
MUSKEGON       FLURRIES  22  10  60 NW10      30.49F
6HR MIN TEMP:  20; 6HR MAX TEMP:  23; 6HR PCP: TRACE;

$$
MIZ016>042-301900-
NORTHERN LOWER MICHIGAN

CITY           SKY/WX    TMP DP  RH WIND       PRES   REMARKS
ALPENA         MIX PCPN   9   1  70 NW9       30.45F
6HR MIN TEMP:   5; 6HR MAX TEMP:   9; 6HR PCP: TRACE;

BEAVER ISLAND  CLOUDY    13   7  77 CALM      30.45F
6HR MIN TEMP:  10; 6HR MAX TEMP:  13;

CADILLAC       CLOUDY    16   7  68 W3        30.39F
CHARLEVOIX     CLOUDY    14   5  68 CALM      30.49F
6HR MIN TEMP:   8; 6HR MAX TEMP:  14;

FRANKFORT      FLURRIES  19  11  72 NW12      30.47F
GAYLORD        MOSUNNY   11   2  67 NE3       30.39F
6HR MIN TEMP:   3; 6HR MAX TEMP:  11;

GRAYLING       PTSUNNY   13   2  59 NW13      30.42F WCI  -1
6HR MIN TEMP:   8; 6HR MAX TEMP:  14;

HARBOR SPRINGS SUNNY     11   0  60 SW5       30.45F
HOUGHTON LAKE  MOSUNNY   15   2  56 N8        30.41F
6HR MIN TEMP:   9; 6HR MAX TEMP:  15;

MANISTEE       CLOUDY    19   7  58 NW8       30.48S
OSCODA         MOSUNNY   12   0  58 NW12G20   30.44F WCI  -2
PELLSTON       SUNNY     11  -1  58 NE3       30.46F
6HR MIN TEMP:   3; 6HR MAX TEMP:  11;

TRAVERSE CITY  LGT SNOW  16   8  71 CALM      30.46F
6HR MIN TEMP:  14; 6HR MAX TEMP:  18; 6HR PCP: TRACE;

$$
MIZ007>008-015-301900-
EASTERN UPPER MICHIGAN

CITY           SKY/WX    TMP DP  RH WIND       PRES   REMARKS
KINROSS        SUNNY     12   0  57 CALM      30.42F
6HR MIN TEMP:  -6; 6HR MAX TEMP:  18;

MACKINAC ISLAN SUNNY      6  -2  68 S3        30.45F
6HR MIN TEMP:   1; 6HR MAX TEMP:   7;

NEWBERRY       LGT SNOW  10   6  81 S5        30.41F
6HR MIN TEMP:   3; 6HR MAX TEMP:  10;

S. S. MARIE    SUNNY     10  -4  53 CALM      30.42F
6HR MIN TEMP:  -4; 6HR MAX TEMP:  10;

$$
MIZ004>006-011>014-085-301900-
CENTRAL UPPER MICHIGAN

CITY           SKY/WX    TMP DP  RH WIND       PRES   REMARKS
MANISTIQUE     FLURRIES  16  10  77 W8        30.44F
6HR MIN TEMP:  13; 6HR MAX TEMP:  16;

ESCANABA       SUNNY     14   1  57 W10G16    30.49F
6HR MIN TEMP:  10; 6HR MAX TEMP:  14;

MENOMINEE      SUNNY     16   0  48 N6        30.49S
6HR MIN TEMP:  12; 6HR MAX TEMP:  16;

SAWYER-GWINN   MOSUNNY   12   0  57 W5        30.41F
$$
MIZ001>003-009>011-084-301900-
WESTERN UPPER MICHIGAN

CITY           SKY/WX    TMP DP  RH WIND       PRES   REMARKS
IRON MOUNTAIN  PTSUNNY   14   2  58 VRB3      30.42F
6HR MIN TEMP:   8; 6HR MAX TEMP:  15;

HOUGHTON       LGT SNOW  11   5  77 S7        30.39F
6HR MIN TEMP:   8; 6HR MAX TEMP:  11; 6HR PCP: TRACE;

COPPER HARBOR    N/A     13   5  70 NW5       30.44F
6HR MIN TEMP:  11; 6HR MAX TEMP:  13;

IRONWOOD       PTSUNNY   14   3  62 SW7       30.37F
6HR MIN TEMP:  10; 6HR MAX TEMP:  14;

$$

ABBREVIATIONS USED IN REMARKS
   TC - TEMPERATURE IN CELSIUS
  WCI - WIND CHILL INDEX
   HX - HEAT INDEX
  VSB - VISIBILITY



USA.gov is the U.S. government's official web portal to all federal, state and local government web resources and services.